Tracking 19476 objects as of 17-Jan-2019
HD Live streaming from Space Station
objects crossing your sky now

LEMUR 2 MARSHALL

Track LEMUR 2 MARSHALL now!
10-day predictions
LEMUR 2 MARSHALL is classified as:


NORAD ID: 43165
Int'l Code: 2018-010C
Perigee: 492.9 km
Apogee: 538.3 km
Inclination: 82.9 °
Period: 94.8 minutes
Semi major axis: 6886 km
RCS: Unknown
Launch date: January 21, 2018
Source: United States (US)
Launch site: Rocket Lab Launch Complex (RLLC)
aabbcc
Your satellite tracking list
Your tracking list is empty




NASA's NSSDC Master Catalog

Two Line Element Set (TLE):
1 43165U 18010C   19017.13932058  .00001024  00000-0  46368-4 0  9996
2 43165  82.9188 161.2198 0033002  59.0461 301.4010 15.19129143 54798
Source of the keplerian elements: AFSPC